Regional Weather Roundup
Issued by NWS Charleston, SC

Current Version | Previous Version | Graphics & Text | Print | Product List | Glossary On
Versions: 1 2 3 4 5 6 7 8 9 10 11 12 13 14 15 16 17 18 19 20 21 22 23 24 25 26 27 28 29 30 31 32 33 34 35 36 37 38 39 40 41 42 43 44 45 46 47 48 49 50
753
ASUS42 KCHS 010827
RWRCHS

REGIONAL WEATHER ROUNDUP
NATIONAL WEATHER SERVICE CHARLESTON SC
300 AM EST WED MAR 01 2017

NOTE: "FAIR" INDICATES FEW OR NO CLOUDS BELOW 12,000 FEET WITH NO
SIGNIFICANT WEATHER AND/OR OBSTRUCTIONS TO VISIBILITY.

NOT ALL STATIONS ARE QUALITY CONTROLLED. USE DATA WITH CAUTION...
ESPECIALLY DEWPOINT OBSERVATIONS.

SCZ027-030-031-034>040-042>050-010900-
...SOUTHEAST SOUTH CAROLINA...

CITY           SKY/WX    TMP DP  RH WIND       PRES   REMARKS
N CHARLESTON   CLOUDY    70  67  90 SW15G24   30.11F
WATERFRONT PRK   N/A     69  69 100 SW6       30.12F
MOUNT PLEASANT FOG       68  66  94 S8        30.12F VSB 1
JOHNS ISLAND   CLOUDY    70  70 100 S8        30.12F FOG
PINOPOLIS        N/A     70  68  94 S7        30.04F
MONCKS CORNER  CLOUDY    68  66  94 S12       30.11F
SUMMERVILLE    FAIR      68  64  88 S5        30.12F
BEAUFORT MCAS  CLOUDY    70  68  93 S10G18    30.12F
BEAUFORT ARPT  FAIR      70  66  88 SW8G20    30.11F
HILTON HEAD IS MOCLDY    68  68 100 S16       30.13F
WALTERBORO     MOSUNNY   66  64  94 S7        30.11F
ALLENDALE      PTSUNNY   66  66 100 CALM      30.09F

...SOUTHERN MIDLANDS AND PEE DEE...

CITY           SKY/WX    TMP DP  RH WIND       PRES   REMARKS
GEORGETOWN     PTSUNNY   68  66  94 S9        30.12F
KINGSTREE      PTSUNNY   66  64  94 S5        30.10F
ORANGEBURG     CLOUDY    67  65  93 S8        30.10F
BARNWELL       FAIR      68  66  94 CALM      30.09F
AIKEN          FAIR      63  61  94 S7        30.10F
MANNING        FAIR      64  61  88 MISG      30.10F
COLUMBIA       CLOUDY    66  62  87 S5        30.07F
SUMTER         CLOUDY    66  64  92 S8        30.07F
FLORENCE       CLOUDY    66  65  96 S8        30.10F
MYRTLE BEACH   FOG       66  66 100 S12       30.11F VSB 1/2
N MYRTLE BEACH CLOUDY    66  66 100 S15       30.10F FOG

$$

GAZ063-065-086>088-099>101-113>116-118-119-134>141-150-010900-
...SOUTHEAST GEORGIA...

CITY           SKY/WX    TMP DP  RH WIND       PRES   REMARKS
SAVANNAH ARPT  CLOUDY    69  65  86 S9        30.13F
HUNTER AAF     CLOUDY    69  69 100 S9        30.10F
FORT STEWART   MOCLDY    67  65  93 CALM      30.11F
STATESBORO     CLOUDY    67  32  27 S5        30.10F
SYLVANIA       MOSUNNY  N/A N/A N/A CALM      30.11F
CLAXTON        FAIR     N/A N/A N/A CALM      30.11F

...CSRA...CENTRAL AND FAR SOUTHEAST GEORGIA...

CITY           SKY/WX    TMP DP  RH WIND       PRES   REMARKS
THOMSON        PTCLDY    60  60 100 CALM      30.11F
AUGUSTA-BUSH   PTCLDY    64  61  90 S5        30.08F
AUGUSTA-DANIEL PTCLDY    66  60  81 S5        30.09F
SWAINSBORO     FAIR      63  63 100 S5        30.11F
VIDALIA        MOCLDY    64  64 100 CALM      30.12S
EASTMAN        FAIR      64  64 100 CALM      30.13F
HAZLEHURST     FAIR      65  64  95 S3        30.11S
ALMA           CLOUDY    63  61  93 S3        30.12F
WAYCROSS       CLOUDY    67  67 100 S5        30.12F
JESUP          FAIR      66  63  88 S3        30.13F
BAXLEY         FAIR      64  64 100 CALM      30.11F
BRUNSWICK      CLOUDY    70  70 100 S9        30.14F
SAINT SIMONS   CLOUDY    70  66  87 S7        30.14F

$$

SCZ027-028-034-036>038-045-046-048>050-GAZ119-141-010900-
...LAKE AND SUPPLEMENTAL COASTAL OBSERVATIONS...

STATION/POSITION TIME  TEMP    WIND        PRES    WAVE   SWELL
                       AIR SEA DIR/SP/G            HT/PER HT/PER/DIR
                 (UTC) (F)     (DEG/KT/KT) (MB)    (FT/S) (FT/S/D)
WINYAH BAY       0730   67     210/  4     1020.0F
LAKE MURRAY      0750   64     170/  3/  5 1017.9F
ACE BASIN NERRS  0730   67     180/  2     1020.0F
FORT PULASKI     0800   68 64  220/ 11/ 15 1020.5
SAPELO ISLAND    0800   69     190/ 11     1020.0

$$

ANZ835-935-AMZ111-154-330-350-352-354-370-450-454-472-010900-
...C-MAN AND BUOY OBSERVATIONS...

STATION/POSITION TIME  TEMP    WIND        PRES    WAVE   SWELL
                       AIR SEA DIR/SP/G            HT/PER HT/PER/DIR
                 (UTC) (F)     (DEG/KT/KT) (MB)    (FT/S) (FT/S/D)
BUOY 41004       0750   71 69  180/ 12/ 14 1020.3F   4/ 6   3/160/ 6
BUOY 41008       0750   66 63  190/ 12/ 14 1020.6F   2/ 7   2/100/ 7
FOLLY BEACH CMAN 0800   65     220/  4/  5 1020.8F
CAPERS NEARSHORE 0708   64 62  180/  4/  6 1020.9F
FRIPP NEARSHORE  0808   65 62  200/ 12/ 14 1019.5F


STATION/POSITION TIME  TEMP    WIND        PRES    WAVE   SWELL
                       AIR SEA DIR/SP/G            HT/PER HT/PER/DIR
                 (UTC) (F)     (DEG/KT/KT) (MB)    (FT/S) (FT/S/D)
5E ST. MARYS GA  0800      65                N/A     3/ 6
FRYING PAN BUOY  0810   71 68  190/ 14/ 16 1020.4
BUOY 41025       0750   73 74  230/ 21/ 23 1019.9F   5/ 5   2/100/ 8
CAPE LOOKOUT NC  0800   67     200/ 13/ 16 1019.3F
BUOY 41002       0750   70 71  170/ 12/ 14 1024.4S   4/ 7   3/ 90/ 7
BUOY 41010       NOT AVBL
ST AUGUSTINE FL  0800   69 69  200/  7/  9 1021.9F


$$




USA.gov is the U.S. government's official web portal to all federal, state and local government web resources and services.